Ogden, UT

3:29 AM MST on February 12, 2016 (GMT -0700)
Ogden-Hinckley

Weather History for KOGD - September, 2013

Change the Weather History Date:

Sunday, September 29, 2013

  Actual Average Record
Temperature  
Mean Temperature 60 °F -  
Max Temperature 72 °F 73 °F 90 °F (1957)
Min Temperature 48 °F 43 °F 29 °F (1985)
Degree Days  
Heating Degree Days 6    
Growing Degree Days 10 (Base 50)    
Moisture  
Dew Point 28 °F    
Average Humidity 31    
Maximum Humidity 44    
Minimum Humidity 18    
Precipitation  
Precipitation 0.00 in - - ()
Sea Level Pressure  
Sea Level Pressure 29.92 in    
Wind  
Wind Speed 12 mph (South)    
Max Wind Speed 22 mph    
Max Gust Speed 29 mph    
Visibility 10 miles    
Events      
Averages and records for this station are not official NWS values.
T = Trace of Precipitation, MM = Missing Value Source: NWS Daily Summary

Daily Weather History Graph

Daily Weather History Graph

Search for Another Location

Airport or City:

Trip Planner

Search our weather history database for the weather conditions in past years. The results will help you decide how hot, cold, wet, or windy it might be!

Date:

Astronomy

Sep. 29, 2013 Rise Set
Actual Time 7:22 AM MDT 7:12 PM MDT
Civil Twilight 6:55 AM MDT 7:40 PM MDT
Nautical Twilight 6:23 AM MDT 8:12 PM MDT
Astronomical Twilight 5:51 AM MDT 8:44 PM MDT
Moon 2:05 AM MDT (9/29) 4:13 PM MDT (9/29)
Length of Visible Light 12h 44m
Length of Day
11h 49m
Waning Crescent, 26% of the Moon is Illuminated
Sep 29
Waning Crescent
Oct 4
New
Oct 11
First Quarter
Oct 18
Full
Oct 26
Last Quarter

Hourly Weather History & Observations

Time (MDT) Temp. Dew Point Humidity Pressure Visibility Wind Dir Wind Speed Gust Speed Precip Events Conditions
12:53 AM 48.9 °F 28.0 °F 44% 30.03 in 10.0 mi South 10.4 mph - N/A   Clear
1:53 AM 48.0 °F 27.0 °F 44% 30.02 in 10.0 mi SSE 10.4 mph - N/A   Clear
2:53 AM 48.9 °F 27.0 °F 43% 30.00 in 10.0 mi South 13.8 mph - N/A   Clear
3:53 AM 48.0 °F 27.0 °F 44% 29.98 in 10.0 mi South 11.5 mph - N/A   Clear
4:53 AM 48.0 °F 26.1 °F 42% 29.98 in 10.0 mi South 11.5 mph - N/A   Clear
5:53 AM 48.0 °F 27.0 °F 44% 29.96 in 10.0 mi South 13.8 mph - N/A   Clear
6:53 AM 48.0 °F 27.0 °F 44% 29.96 in 10.0 mi South 12.7 mph - N/A   Clear
7:53 AM 48.9 °F 27.0 °F 43% 29.98 in 10.0 mi South 13.8 mph - N/A   Clear
8:53 AM 55.9 °F 28.0 °F 34% 29.97 in 10.0 mi SSE 11.5 mph - N/A   Clear
9:53 AM 62.1 °F 27.0 °F 26% 29.98 in 10.0 mi South 12.7 mph - N/A   Clear
10:53 AM 64.9 °F 26.1 °F 23% 29.96 in 10.0 mi South 15.0 mph 24.2 mph N/A   Partly Cloudy
11:53 AM 68.0 °F 24.1 °F 19% 29.93 in 10.0 mi South 21.9 mph 28.8 mph N/A   Clear
12:53 PM 70.0 °F 25.0 °F 18% 29.91 in 10.0 mi South 15.0 mph - N/A   Partly Cloudy
1:53 PM 71.1 °F 27.0 °F 19% 29.87 in 10.0 mi South 17.3 mph 24.2 mph N/A   Partly Cloudy
2:53 PM 69.1 °F 28.0 °F 22% 29.91 in 10.0 mi SSW 5.8 mph 25.3 mph N/A   Overcast
3:53 PM 68.0 °F 30.9 °F 25% 29.91 in 10.0 mi SW 16.1 mph 28.8 mph 0.00 in   Mostly Cloudy
4:53 PM 68.0 °F 33.1 °F 27% 29.89 in 10.0 mi SSW 6.9 mph - N/A   Overcast
5:53 PM 68.0 °F 32.0 °F 26% 29.86 in 10.0 mi SSE 9.2 mph - N/A   Overcast
6:53 PM 64.9 °F 35.1 °F 33% 29.84 in 10.0 mi SSE 8.1 mph - N/A   Partly Cloudy
7:53 PM 64.9 °F 30.9 °F 28% 29.84 in 10.0 mi SSE 11.5 mph - N/A   Overcast
8:53 PM 66.9 °F 28.9 °F 24% 29.82 in 10.0 mi South 13.8 mph - N/A   Mostly Cloudy
9:53 PM 66.9 °F 30.0 °F 25% 29.82 in 10.0 mi South 13.8 mph - N/A   Mostly Cloudy
10:53 PM 66.0 °F 30.0 °F 26% 29.81 in 10.0 mi South 10.4 mph - N/A   Overcast
11:53 PM 68.0 °F 27.0 °F 21% 29.78 in 10.0 mi South 12.7 mph - N/A   Overcast